• In Hungary
  • List of Countries
  • For 7 days
  • Water Temperature
  • Satellite Maps
  • Weather Map
  • News
  • Weather Widgets
  • user-avatar
    Login

    Hourly Weather Pchelka

    Today, 26 September, Wednesday

    Time Temperature Precipitation Wind Pressure Humidity
    00:00 +13°C° 0.4 mm 4 mps 747 mmHg 74%
    01:00 +13°C° 0.4 mm 4 mps 747 mmHg 75%
    02:00 +13°C° 0.1 mm 4 mps 747 mmHg 73%
    03:00 +13°C° 0.1 mm 5 mps 747 mmHg 71%
    04:00 +13°C° 0 mm 5 mps 747 mmHg 70%
    05:00 +13°C° 0.2 mm 5 mps 747 mmHg 71%
    06:00 +13°C° 0.2 mm 5 mps 747 mmHg 72%
    07:00 +13°C° 0.2 mm 6 mps 747 mmHg 73%
    08:00 +13°C° 0.1 mm 5 mps 748 mmHg 73%
    09:00 +13°C° 0.1 mm 5 mps 748 mmHg 73%
    10:00 +13°C° 0.1 mm 5 mps 748 mmHg 73%
    11:00 +12°C° 0.7 mm 5 mps 749 mmHg 77%
    12:00 +12°C° 0.7 mm 5 mps 749 mmHg 80%
    13:00 +12°C° 0.7 mm 5 mps 749 mmHg 84%
    14:00 +12°C° 0.9 mm 5 mps 749 mmHg 83%
    15:00 +12°C° 0.9 mm 5 mps 750 mmHg 82%
    16:00 +12°C° 0.9 mm 4 mps 750 mmHg 82%
    17:00 +11°C° 0 mm 4 mps 750 mmHg 84%
    18:00 +11°C° 0 mm 3 mps 750 mmHg 85%
    19:00 +10°C° 0 mm 3 mps 750 mmHg 87%
    20:00 +10°C° 0 mm 2 mps 750 mmHg 87%
    21:00 +10°C° 0 mm 2 mps 750 mmHg 87%
    22:00 +9°C° 0 mm 2 mps 750 mmHg 87%
    23:00 +9°C° 0.1 mm 2 mps 750 mmHg 88%

    Tomorrow, 27 September, Thursday

    Time Temperature Precipitation Wind Pressure Humidity
    00:00 +9°C° 0.1 mm 2 mps 750 mmHg 88%
    01:00 +8°C° 0.1 mm 2 mps 750 mmHg 88%
    02:00 +8°C° 0.1 mm 2 mps 750 mmHg 89%
    03:00 +8°C° 0.1 mm 2 mps 750 mmHg 89%
    04:00 +8°C° 0.1 mm 2 mps 749 mmHg 89%
    05:00 +8°C° 0 mm 3 mps 749 mmHg 86%
    06:00 +8°C° 0 mm 3 mps 749 mmHg 84%
    07:00 +7°C° 0 mm 4 mps 749 mmHg 81%
    08:00 +7°C° 0 mm 4 mps 748 mmHg 75%
    09:00 +7°C° 0 mm 5 mps 748 mmHg 70%
    10:00 +8°C° 0 mm 6 mps 748 mmHg 64%
    11:00 +8°C° 0 mm 6 mps 747 mmHg 62%
    12:00 +9°C° 0 mm 6 mps 747 mmHg 59%
    13:00 +9°C° 0 mm 7 mps 746 mmHg 57%
    14:00 +9°C° 0 mm 7 mps 746 mmHg 57%
    15:00 +9°C° 0 mm 7 mps 745 mmHg 56%
    16:00 +10°C° 0 mm 7 mps 745 mmHg 56%
    17:00 +9°C° 0 mm 7 mps 744 mmHg 58%
    18:00 +8°C° 0 mm 6 mps 744 mmHg 60%
    19:00 +7°C° 0 mm 5 mps 743 mmHg 63%
    20:00 +7°C° 0.2 mm 6 mps 743 mmHg 66%
    21:00 +7°C° 0.2 mm 6 mps 742 mmHg 69%
    22:00 +5°C° 0.2 mm 6 mps 741 mmHg 72%
    23:00 +5°C° 0.6 mm 7 mps 740 mmHg 75%

    Day after tomorrow, 28 September, Friday

    Time Temperature Precipitation Wind Pressure Humidity
    00:00 +4°C° 0.6 mm 7 mps 740 mmHg 79%
    01:00 +4°C° 0.6 mm 7 mps 739 mmHg 82%
    02:00 +4°C° 0.6 mm 6 mps 739 mmHg 83%
    03:00 +4°C° 0.6 mm 6 mps 739 mmHg 85%
    04:00 +4°C° 0.6 mm 6 mps 739 mmHg 87%
    05:00 +4°C° 0.1 mm 6 mps 739 mmHg 86%
    06:00 +4°C° 0.1 mm 6 mps 739 mmHg 85%
    07:00 +4°C° 0.1 mm 7 mps 740 mmHg 85%
    08:00 +4°C° 0.1 mm 7 mps 740 mmHg 83%
    09:00 +4°C° 0.1 mm 7 mps 740 mmHg 81%
    10:00 +5°C° 0.1 mm 7 mps 741 mmHg 79%
    11:00 +5°C° 0 mm 7 mps 741 mmHg 77%
    12:00 +5°C° 0 mm 7 mps 742 mmHg 75%
    13:00 +6°C° 0 mm 8 mps 742 mmHg 73%
    14:00 +6°C° 0 mm 7 mps 742 mmHg 72%
    15:00 +7°C° 0 mm 6 mps 742 mmHg 71%
    16:00 +8°C° 0 mm 6 mps 743 mmHg 70%
    17:00 +7°C° 0.1 mm 6 mps 743 mmHg 72%
    18:00 +7°C° 0.1 mm 5 mps 743 mmHg 73%
    19:00 +7°C° 0.1 mm 5 mps 743 mmHg 75%
    20:00 +7°C° 0.3 mm 6 mps 742 mmHg 78%
    21:00 +6°C° 0.3 mm 7 mps 741 mmHg 80%
    22:00 +6°C° 0.3 mm 8 mps 740 mmHg 82%
    23:00 +7°C° 0.6 mm 8 mps 739 mmHg 81%

    29 September, Saturday

    Time Temperature Precipitation Wind Pressure Humidity
    00:00 +7°C° 0.6 mm 9 mps 738 mmHg 80%
    01:00 +8°C° 0.6 mm 9 mps 738 mmHg 78%
    02:00 +8°C° 0.6 mm 9 mps 737 mmHg 80%
    03:00 +8°C° 0.6 mm 10 mps 737 mmHg 81%
    04:00 +8°C° 0.6 mm 10 mps 737 mmHg 83%
    05:00 +8°C° 0.3 mm 9 mps 738 mmHg 82%
    06:00 +8°C° 0.3 mm 9 mps 739 mmHg 81%
    07:00 +7°C° 0.3 mm 8 mps 739 mmHg 81%
    08:00 +7°C° 0 mm 8 mps 740 mmHg 77%
    09:00 +7°C° 0 mm 8 mps 741 mmHg 73%
    10:00 +6°C° 0 mm 8 mps 742 mmHg 69%
    11:00 +7°C° 0 mm 8 mps 743 mmHg 67%
    12:00 +7°C° 0 mm 8 mps 744 mmHg 64%
    13:00 +7°C° 0 mm 8 mps 745 mmHg 61%
    14:00 +7°C° 0 mm 8 mps 746 mmHg 61%
    15:00 +6°C° 0 mm 7 mps 746 mmHg 61%
    16:00 +5°C° 0 mm 7 mps 747 mmHg 60%
    17:00 +5°C° 0 mm 6 mps 747 mmHg 62%
    18:00 +5°C° 0 mm 5 mps 748 mmHg 64%
    19:00 +5°C° 0 mm 3 mps 749 mmHg 66%
    20:00 +4°C° 0 mm 3 mps 749 mmHg 67%
    21:00 +4°C° 0 mm 3 mps 749 mmHg 68%
    22:00 +3°C° 0 mm 3 mps 750 mmHg 69%
    23:00 +3°C° 0 mm 3 mps 750 mmHg 71%

    30 September, Sunday

    Time Temperature Precipitation Wind Pressure Humidity
    00:00 +2°C° 0 mm 3 mps 750 mmHg 73%
    01:00 +2°C° 0 mm 3 mps 750 mmHg 75%
    02:00 +2°C° 0 mm 3 mps 751 mmHg 77%
    03:00 +1°C° 0 mm 3 mps 751 mmHg 79%
    04:00 +1°C° 0 mm 3 mps 751 mmHg 80%
    05:00 +1°C° 0 mm 3 mps 751 mmHg 80%
    06:00 +1°C° 0 mm 3 mps 751 mmHg 79%
    07:00 +1°C° 0 mm 3 mps 751 mmHg 78%
    08:00 +2°C° 0 mm 3 mps 752 mmHg 76%
    09:00 +3°C° 0 mm 3 mps 752 mmHg 73%
    10:00 +4°C° 0 mm 3 mps 752 mmHg 70%
    11:00 +5°C° 0 mm 3 mps 752 mmHg 69%
    12:00 +5°C° 0 mm 3 mps 752 mmHg 68%
    13:00 +7°C° 0 mm 3 mps 752 mmHg 66%
    14:00 +7°C° 0.1 mm 3 mps 751 mmHg 67%
    15:00 +7°C° 0.1 mm 2 mps 751 mmHg 68%
    16:00 +7°C° 0.1 mm 2 mps 751 mmHg 70%
    17:00 +6°C° 0.1 mm 2 mps 751 mmHg 74%
    18:00 +6°C° 0.1 mm 2 mps 751 mmHg 78%
    19:00 +6°C° 0.1 mm 1 mps 751 mmHg 82%
    20:00 +5°C° 0.1 mm 2 mps 751 mmHg 83%
    21:00 +5°C° 0.1 mm 2 mps 751 mmHg 85%
    22:00 +4°C° 0.1 mm 2 mps 751 mmHg 86%
    23:00 +4°C° 0 mm 2 mps 751 mmHg 87%

    1 October, Monday

    Time Temperature Precipitation Wind Pressure Humidity
    00:00 +4°C° 0 mm 2 mps 751 mmHg 88%
    01:00 +3°C° 0 mm 2 mps 751 mmHg 89%
    02:00 +3°C° 0.1 mm 2 mps 751 mmHg 88%
    03:00 +3°C° 0.1 mm 2 mps 751 mmHg 88%
    04:00 +1°C° 0.1 mm 3 mps 751 mmHg 87%
    05:00 +1°C° 0 mm 3 mps 751 mmHg 87%
    06:00 0°C° 0 mm 3 mps 752 mmHg 87%
    07:00 0°C° 0 mm 3 mps 752 mmHg 87%
    08:00 +1°C° 0 mm 3 mps 752 mmHg 78%
    09:00 +1°C° 0 mm 4 mps 752 mmHg 69%
    10:00 +3°C° 0 mm 4 mps 752 mmHg 60%
    11:00 +4°C° 0 mm 4 mps 752 mmHg 57%
    12:00 +5°C° 0 mm 4 mps 752 mmHg 53%
    13:00 +5°C° 0 mm 4 mps 752 mmHg 50%
    14:00 +6°C° 0 mm 4 mps 752 mmHg 51%
    15:00 +6°C° 0 mm 4 mps 752 mmHg 51%
    16:00 +6°C° 0 mm 4 mps 753 mmHg 52%
    17:00 +5°C° 0 mm 3 mps 753 mmHg 57%
    18:00 +4°C° 0 mm 3 mps 753 mmHg 62%
    19:00 +4°C° 0 mm 2 mps 753 mmHg 67%
    20:00 +3°C° 0 mm 3 mps 753 mmHg 68%
    21:00 +4°C° 0 mm 3 mps 753 mmHg 69%
    22:00 +4°C° 0 mm 3 mps 753 mmHg 70%
    23:00 +4°C° 0 mm 3 mps 753 mmHg 74%
    Show more